Date String (YYYY-MM-DD hh:mm:ss) UTC,Instrument flags,Ambient pressure (hPa),Sample flow (lpm),Bypass flow (lpm),Sample temperature (°C),Ambient temperature (°C),ASC tube jacket temperature (°C),LED temperature (°C),Box temperature (°C),Sample RH (%),Span deviation,Mass concentration (μg/m³),Mass concentration (μg/m³),Mass concentration (μg/m³)
DateTimeUTC,F1_M11,P_M11,Q1_M11,Q2_M11,T1_M11,T2_M11,T3_M11,T4_M11,T5_M11,U1_M11,ZSPAN_M11,X0_M11,X2_M11,X1_M11
2022-05-04 09:00:00,,0821.9,5.01,0.00,25.9,25.0,00.0,34.8,27.7,23.9,-002.0,0009.92,0008.16,0007.85
2022-05-04 09:01:00,,0821.9,4.99,0.00,25.9,25.0,00.0,34.8,27.7,23.9,-001.6,0009.82,0008.06,0007.76
2022-05-04 09:02:00,,0821.9,5.00,0.00,25.9,25.0,00.0,34.8,27.7,23.9,-001.3,0009.86,0008.01,0007.68
2022-05-04 09:03:00,,0821.9,5.00,0.00,25.9,25.0,00.0,34.8,27.7,23.9,-001.3,0009.74,0007.95,0007.63
2022-05-04 09:04:00,,0821.9,5.00,0.00,25.9,25.0,00.0,34.8,27.7,23.8,-001.1,0009.71,0007.92,0007.61
2022-05-04 09:05:00,,0822.0,5.01,0.00,25.9,25.0,00.0,34.8,27.7,23.8,-001.1,0009.69,0007.93,0007.62
2022-05-04 09:06:00,,0822.0,4.99,0.00,25.9,25.0,00.0,34.8,27.7,23.9,-000.7,0009.68,0007.94,0007.64
2022-05-04 09:07:00,,0821.9,5.00,0.00,25.9,25.0,00.0,34.8,27.7,23.9,-000.6,0009.66,0007.92,0007.63
2022-05-04 09:08:00,,0821.9,5.00,0.00,25.9,25.0,00.0,34.8,27.7,23.9,-000.8,0009.73,0007.95,0007.65
2022-05-04 09:09:00,,0821.9,4.99,0.00,25.9,25.0,00.0,34.8,27.7,23.9,-000.6,0009.77,0007.99,0007.68
2022-05-04 09:10:00,,0821.9,5.01,0.00,25.9,25.0,00.0,34.8,27.7,23.9,-000.9,0009.81,0008.02,0007.71
2022-05-04 09:11:00,,0821.9,4.98,0.00,25.9,25.0,00.0,34.8,27.7,24.0,-001.4,0009.74,0008.00,0007.74
2022-05-04 09:12:00,,0821.9,5.01,0.00,25.9,25.0,00.0,34.8,27.7,24.0,-002.2,0009.95,0008.05,0007.80
2022-05-04 09:13:00,,0822.0,5.01,0.00,25.9,24.9,00.0,34.8,27.7,24.0,-002.7,0010.02,0008.11,0007.85
2022-05-04 09:14:00,,0822.0,4.99,0.00,25.9,24.9,00.0,34.8,27.7,24.0,-002.8,0010.09,0008.15,0007.89
2022-05-04 09:15:00,,0822.0,4.99,0.00,25.9,24.9,00.0,34.8,27.7,24.0,-003.0,0010.21,0008.19,0007.91
2022-05-04 09:16:00,,0822.0,5.01,0.00,25.8,24.9,00.0,34.8,27.6,24.0,-002.9,0010.27,0008.23,0007.93
2022-05-04 09:17:00,,0822.1,5.01,0.00,25.8,24.9,00.0,34.8,27.6,23.9,-003.2,0010.49,0008.31,0007.97
2022-05-04 09:18:00,,0822.1,4.99,0.00,25.8,24.9,00.0,34.8,27.6,24.0,-003.3,0010.69,0008.37,0008.00
2022-05-04 09:19:00,,0822.1,5.00,0.00,25.8,24.8,00.0,34.8,27.5,23.9,-003.5,0010.89,0008.43,0008.03
2022-05-04 09:20:00,,0822.1,5.00,0.00,25.8,24.8,00.0,34.8,27.5,23.9,-003.4,0011.00,0008.47,0008.05
2022-05-04 09:21:00,,0822.0,4.99,0.00,25.7,24.8,00.0,34.8,27.5,23.9,-003.4,0011.17,0008.54,0008.07
2022-05-04 09:22:00,,0822.0,5.02,0.00,25.7,24.8,00.0,34.8,27.5,23.9,-003.3,0011.34,0008.60,0008.10
2022-05-04 09:23:00,,0822.0,5.01,0.00,25.7,24.8,00.0,34.8,27.5,23.8,-003.0,0011.47,0008.65,0008.10
2022-05-04 09:24:00,,0822.0,5.00,0.00,25.7,24.8,00.0,34.7,27.5,23.9,-002.9,0011.47,0008.63,0008.09
2022-05-04 09:25:00,,0821.9,5.00,0.00,25.7,24.8,00.0,34.7,27.5,24.1,-003.0,0011.49,0008.63,0008.10
2022-05-04 09:26:00,,0822.0,5.00,0.00,25.7,24.8,00.0,34.7,27.5,25.3,-003.1,0011.66,0008.69,0008.11
2022-05-04 09:27:00,,0821.9,5.00,0.00,25.7,24.8,00.0,34.7,27.5,24.9,-003.2,0011.67,0008.67,0008.10
2022-05-04 09:28:00,,0821.9,5.01,0.00,25.7,24.8,00.0,34.7,27.5,24.3,-003.3,0011.65,0008.64,0008.07
2022-05-04 09:29:00,,0821.8,4.99,0.00,25.6,24.8,00.0,34.7,27.4,24.2,-003.2,0011.65,0008.66,0008.06
2022-05-04 09:30:00,,0821.8,5.00,0.00,25.6,24.7,00.0,34.7,27.4,24.1,-003.0,0011.64,0008.66,0008.06
2022-05-04 09:31:00,,0821.9,5.01,0.00,25.6,24.7,00.0,34.7,27.3,24.1,-003.2,0011.74,0008.71,0008.06
2022-05-04 09:32:00,,0822.0,4.99,0.00,25.6,24.7,00.0,34.6,27.3,24.1,-003.2,0011.83,0008.74,0008.07
2022-05-04 09:33:00,,0822.1,5.01,0.00,25.6,24.7,00.0,34.6,27.3,24.1,-003.3,0011.96,0008.76,0008.08
2022-05-04 09:34:00,,0822.1,4.99,0.00,25.5,24.7,00.0,34.6,27.3,24.1,-003.1,0011.97,0008.78,0008.08
2022-05-04 09:35:00,,0822.1,5.01,0.00,25.5,24.7,00.0,34.6,27.3,24.1,-003.0,0011.96,0008.79,0008.08
2022-05-04 09:36:00,,0822.1,5.00,0.00,25.5,24.6,00.0,34.6,27.3,24.2,-002.9,0012.09,0008.82,0008.08
2022-05-04 09:37:00,,0822.2,5.01,0.00,25.5,24.6,00.0,34.6,27.3,24.2,-002.6,0012.20,0008.79,0008.07
2022-05-04 09:38:00,,0822.2,4.99,0.00,25.5,24.6,00.0,34.6,27.3,24.2,-002.3,0012.40,0008.84,0008.08
2022-05-04 09:39:00,,0822.3,5.01,0.00,25.5,24.7,00.0,34.5,27.3,24.2,-002.1,0012.53,0008.86,0008.09
2022-05-04 09:40:00,,0822.3,4.99,0.00,25.5,24.7,00.0,34.5,27.3,24.2,-002.2,0012.54,0008.85,0008.09
2022-05-04 09:41:00,,0822.3,5.01,0.00,25.5,24.6,00.0,34.5,27.3,24.2,-002.3,0012.48,0008.84,0008.09
2022-05-04 09:42:00,,0822.3,4.99,0.00,25.5,24.6,00.0,34.5,27.3,24.2,-002.3,0012.52,0008.82,0008.09
2022-05-04 09:43:00,,0822.3,5.01,0.00,25.5,24.7,00.0,34.5,27.3,24.2,-002.3,0012.44,0008.79,0008.10
2022-05-04 09:44:00,,0822.3,5.00,0.00,25.5,24.6,00.0,34.5,27.3,24.2,-002.2,0012.42,0008.79,0008.10
2022-05-04 09:45:00,,0822.3,5.01,0.00,25.5,24.6,00.0,34.5,27.3,24.2,-002.1,0012.33,0008.75,0008.10
2022-05-04 09:46:00,,0822.3,5.00,0.00,25.5,24.7,00.0,34.5,27.3,24.1,-002.3,0012.35,0008.76,0008.11
2022-05-04 09:47:00,,0822.3,5.00,0.00,25.5,24.7,00.0,34.5,27.3,24.1,-002.4,0012.18,0008.73,0008.11
2022-05-04 09:48:00,,0822.3,5.01,0.00,25.5,24.7,00.0,34.5,27.3,24.1,-002.6,0011.92,0008.71,0008.11
2022-05-04 09:49:00,,0822.3,4.99,0.00,25.5,24.7,00.0,34.5,27.2,24.1,-002.5,0011.76,0008.68,0008.13
2022-05-04 09:50:00,,0822.3,5.01,0.00,25.4,24.6,00.0,34.5,27.2,24.1,-002.6,0011.84,0008.69,0008.14
2022-05-04 09:51:00,,0822.4,4.99,0.00,25.4,24.6,00.0,34.4,27.2,24.1,-002.4,0012.64,0008.70,0008.15
2022-05-04 09:52:00,,0822.5,5.00,0.00,25.4,24.6,00.0,34.4,27.2,24.2,-002.2,0012.62,0008.69,0008.16
2022-05-04 09:53:00,,0822.4,5.01,0.00,25.4,24.5,00.0,34.4,27.2,24.2,-002.2,0012.77,0008.70,0008.17
2022-05-04 09:54:00,,0822.4,4.98,0.00,25.4,24.4,00.0,34.4,27.1,24.2,-002.2,0012.87,0008.73,0008.17
2022-05-04 09:55:00,,0822.3,5.01,0.00,25.3,24.4,00.0,34.4,27.1,24.2,-002.3,0012.92,0008.72,0008.17
2022-05-04 09:56:00,,0822.2,5.00,0.00,25.3,24.4,00.0,34.4,27.1,24.3,-002.6,0012.97,0008.72,0008.17
2022-05-04 09:57:00,,0822.2,4.99,0.00,25.3,24.4,00.0,34.4,27.2,24.3,-002.5,0013.02,0008.73,0008.15
2022-05-04 09:58:00,,0822.1,5.01,0.00,25.3,24.5,00.0,34.3,27.1,24.3,-002.1,0013.02,0008.73,0008.15
2022-05-04 09:59:00,,0822.1,4.99,0.00,25.3,24.5,00.0,34.4,27.1,24.2,-002.1,0013.04,0008.74,0008.14
